Location: Unspecified
(51.0000°N, 12.0000°E)
Time: 23:53:19
(UTC+02:00)

X-37B - Visible Passes

Search period start: 18 June 2021 00:00
Search period end: 28 June 2021 00:00
Orbit: 386 x 389 km, 45.0° (Epoch: 10 June)

Date Brightness Start Highest point End Pass type
(mag) Time Alt. Az. Time Alt. Az. Time Alt. Az.
18 Jun 1.7 02:48:20 24° SSW 02:48:55 26° S 02:51:38 10° ESE visible
19 Jun 2.7 01:52:21 16° SE 01:52:21 16° SE 01:53:18 10° ESE visible
19 Jun 1.6 03:24:37 13° WSW 03:26:52 26° S 03:29:36 10° SE visible
20 Jun 1.6 02:28:46 27° S 02:28:46 27° S 02:31:25 10° ESE visible
20 Jun 2.1 04:02:25 10° WSW 04:04:46 19° SSW 04:07:06 10° SSE visible
21 Jun 1.8 03:05:33 20° SW 03:06:36 23° SSW 03:09:12 10° SE visible
22 Jun 2.9 02:10:40 13° SE 02:10:40 13° SE 02:11:08 10° SE visible
22 Jun 2.4 03:43:04 12° SW 03:44:25 14° SSW 03:46:14 10° SSE visible
23 Jun 2.5 22:34:17 10° S 22:35:58 14° SSE 22:37:40 10° ESE visible
24 Jun 2.6 00:09:16 10° SW 00:10:08 16° SW 00:10:08 16° SW visible
24 Jun 1.8 23:11:13 10° SW 23:13:48 23° SSE 23:15:11 17° SE visible
25 Jun 3.0 00:47:12 10° WSW 00:47:29 12° WSW 00:47:29 12° WSW visible
25 Jun 2.2 22:13:20 10° SSW 22:15:37 18° SSE 22:17:55 10° ESE visible
25 Jun 1.5 23:48:57 10° WSW 23:51:43 27° S 23:51:53 27° S visible
26 Jun 1.7 22:50:47 10° SW 22:53:30 26° S 22:56:01 11° ESE visible
27 Jun 2.5 00:27:02 10° WSW 00:28:17 18° SW 00:28:17 18° SW visible
27 Jun 1.7 23:28:43 10° WSW 23:31:27 26° S 23:32:17 23° SSE visible
